Weather History for KMSP - September, 2011

Change the Weather History Date:

Friday, September 23, 2011

  Actual Average Record
Temperature  
Mean Temperature 54 °F 59 °F  
Max Temperature 60 °F 69 °F 90 °F (1937)
Min Temperature 47 °F 49 °F 30 °F (1983)
Degree Days  
Heating Degree Days 11 7  
Month to date heating degree days 108 93  
Since 1 July heating degree days 108 112  
Cooling Degree Days 0 1  
Month to date cooling degree days 90 60  
Year to date cooling degree days 1003 741  
Growing Degree Days 2 (Base 50)    
Moisture  
Dew Point 41 °F    
Average Humidity 66    
Maximum Humidity 80    
Minimum Humidity 51    
Precipitation  
Precipitation 0.00 in 0.10 in 1.98 in (2010)
Month to date precipitation 0.31 2.39  
Year to date precipitation 24.87 24.56  
Snow  
Snow 0.00 in 0.00 in T in (1928)
Month to date snowfall 0.0 0.0  
Since 1 July snowfall 0.0 0.0  
Since 1 September snowfall 0.0 0.0  
Snow Depth 0.00 in    
Sea Level Pressure  
Sea Level Pressure 30.15 in    
Wind  
Wind Speed 3 mph (NE)    
Max Wind Speed 12 mph    
Max Gust Speed 21 mph    
Visibility 10 miles    
Events      
T = Trace of Precipitation, MM = Missing Value Source: NWS Daily Summary

Daily Weather History Graph

Daily Weather History Graph

Search for Another Location

Airport or City:

Trip Planner

Search our weather history database for the weather conditions in past years. The results will help you decide how hot, cold, wet, or windy it might be!

Date:

Astronomy

Sep. 23, 2011 Rise Set
Actual Time 7:00 AM CDT 7:08 PM CDT
Civil Twilight 6:31 AM CDT 7:38 PM CDT
Nautical Twilight 5:57 AM CDT 8:12 PM CDT
Astronomical Twilight 5:22 AM CDT 8:47 PM CDT
Moon 2:17 AM CDT (9/23) 4:49 PM CDT (9/23)
Length of Visible Light 13h 06m
Length of Day
12h 08m
Waning Crescent, 19% of the Moon is Illuminated
Sep 23
Waning Crescent
Sep 27
New
Oct 3
First Quarter
Oct 11
Full
Oct 19
Last Quarter

Hourly Weather History & Observations

Time (CDT) Temp. Dew Point Humidity Pressure Visibility Wind Dir Wind Speed Gust Speed Precip Events Conditions
12:53 AM 48.9 °F 39.0 °F 69% 30.18 in 10.0 mi East 3.5 mph - N/A   Overcast
1:53 AM 48.9 °F 39.9 °F 71% 30.18 in 10.0 mi Calm Calm - N/A   Overcast
2:53 AM 48.9 °F 39.9 °F 71% 30.18 in 10.0 mi Calm Calm - N/A   Overcast
3:53 AM 48.9 °F 39.0 °F 69% 30.19 in 10.0 mi Calm Calm - N/A   Overcast
4:53 AM 48.9 °F 41.0 °F 74% 30.18 in 10.0 mi Calm Calm - N/A   Overcast
5:53 AM 48.9 °F 39.9 °F 71% 30.19 in 10.0 mi Calm Calm - N/A   Mostly Cloudy
6:53 AM 48.2 °F 41.0 °F 76% 30.18 in 10.0 mi Calm Calm - N/A   Mostly Cloudy
7:53 AM 50.0 °F 39.9 °F 68% 30.20 in 10.0 mi Variable 3.5 mph - N/A   Overcast
8:53 AM 50.0 °F 41.0 °F 71% 30.20 in 10.0 mi Calm Calm - N/A   Overcast
9:53 AM 52.0 °F 41.0 °F 66% 30.20 in 10.0 mi Calm Calm - N/A   Overcast
10:53 AM 53.6 °F 39.2 °F 58% 30.18 in 10.0 mi NNE 3.5 mph - N/A   Overcast
11:53 AM 53.1 °F 37.9 °F 57% 30.18 in 10.0 mi NE 5.8 mph - N/A   Overcast
12:53 PM 54.0 °F 39.9 °F 59% 30.17 in 10.0 mi ENE 3.5 mph - N/A   Overcast
1:53 PM 55.9 °F 39.9 °F 55% 30.14 in 10.0 mi SE 4.6 mph - N/A   Mostly Cloudy
2:53 PM 57.9 °F 39.9 °F 51% 30.14 in 10.0 mi Calm Calm - N/A   Mostly Cloudy
3:53 PM 57.9 °F 39.9 °F 51% 30.11 in 10.0 mi Calm Calm - N/A   Scattered Clouds
4:53 PM 57.0 °F 41.0 °F 55% 30.09 in 10.0 mi NNE 5.8 mph - N/A   Scattered Clouds
5:53 PM 57.9 °F 41.0 °F 53% 30.09 in 10.0 mi Variable 4.6 mph - N/A   Scattered Clouds
6:53 PM 55.0 °F 42.1 °F 62% 30.10 in 10.0 mi NE 10.4 mph - N/A   Scattered Clouds
7:53 PM 53.1 °F 42.1 °F 66% 30.09 in 10.0 mi NNE 4.6 mph - N/A   Mostly Cloudy
8:53 PM 51.1 °F 42.1 °F 71% 30.10 in 10.0 mi NNE 3.5 mph - N/A   Scattered Clouds
9:53 PM 50.0 °F 43.0 °F 77% 30.10 in 10.0 mi Variable 3.5 mph - N/A   Mostly Cloudy
10:53 PM 48.9 °F 42.1 °F 77% 30.10 in 10.0 mi East 3.5 mph - N/A   Mostly Cloudy
11:53 PM 48.9 °F 42.1 °F 77% 30.09 in 10.0 mi ENE 6.9 mph - N/A   Mostly Cloudy